Total_Precipitation_Accumulation
0.15 0.17 0.41 0.50 0.54 0.59 0.58 0.55 0.49 0.45 0.46 0.50 0.53 0.50 0.46 0.47 0.50 0.52 0.56 0.59 0.64 0.66 0.68 0.79 0.85 0.85 0.83 0.80 0.80 0.77 0.69 0.64 0.61 0.59 0.66 0.71 0.67 0.57 0.49 0.44 0.39 0.46 0.59
0.10 0.16 0.34 0.42 0.46 0.56 0.61 0.55 0.46 0.39 0.39 0.45 0.46 0.42 0.40 0.42 0.46 0.50 0.56 0.64 0.67 0.65 0.68 0.75 0.83 0.86 0.84 0.80 0.78 0.67 0.51 0.39 0.35 0.33 0.36 0.47 0.57 0.57 0.49 0.45 0.46 0.63 0.68
0.09 0.15 0.26 0.39 0.42 0.52 0.56 0.52 0.44 0.38 0.35 0.40 0.40 0.39 0.38 0.41 0.47 0.54 0.59 0.63 0.65 0.69 0.70 0.70 0.85 0.92 0.92 0.85 0.78 0.64 0.49 0.33 0.24 0.22 0.22 0.33 0.50 0.62 0.56 0.50 0.52 0.60 0.63
0.11 0.14 0.20 0.35 0.42 0.49 0.52 0.48 0.44 0.40 0.37 0.37 0.36 0.37 0.39 0.43 0.46 0.52 0.60 0.66 0.67 0.76 0.78 0.82 0.90 0.87 0.86 0.78 0.70 0.60 0.51 0.35 0.22 0.17 0.17 0.29 0.50 0.67 0.63 0.56 0.50 0.53 0.57
0.13 0.18 0.27 0.35 0.43 0.48 0.49 0.47 0.46 0.42 0.37 0.36 0.36 0.37 0.41 0.45 0.47 0.50 0.52 0.60 0.66 0.75 0.75 0.76 0.83 0.79 0.76 0.73 0.64 0.61 0.59 0.41 0.23 0.13 0.13 0.23 0.43 0.70 0.64 0.59 0.51 0.48 0.51
0.13 0.19 0.30 0.40 0.46 0.49 0.49 0.53 0.53 0.47 0.43 0.40 0.40 0.41 0.44 0.48 0.50 0.50 0.48 0.47 0.53 0.59 0.61 0.65 0.71 0.71 0.68 0.63 0.55 0.57 0.62 0.51 0.25 0.13 0.16 0.21 0.36 0.62 0.62 0.59 0.54 0.52 0.47
0.16 0.19 0.30 0.45 0.54 0.55 0.53 0.55 0.56 0.50 0.47 0.44 0.46 0.49 0.49 0.50 0.53 0.50 0.43 0.41 0.44 0.45 0.48 0.57 0.67 0.70 0.68 0.61 0.55 0.57 0.62 0.49 0.24 0.21 0.23 0.24 0.33 0.50 0.65 0.67 0.61 0.57 0.51
0.16 0.21 0.33 0.50 0.63 0.62 0.59 0.57 0.63 0.57 0.54 0.50 0.51 0.53 0.55 0.55 0.56 0.54 0.46 0.41 0.41 0.40 0.42 0.47 0.58 0.74 0.73 0.61 0.56 0.59 0.56 0.36 0.19 0.19 0.23 0.27 0.34 0.55 0.88 0.95 0.74 0.61 0.56
0.18 0.24 0.33 0.50 0.68 0.71 0.64 0.63 0.67 0.64 0.64 0.60 0.58 0.57 0.54 0.55 0.56 0.59 0.56 0.50 0.48 0.46 0.44 0.45 0.52 0.69 0.72 0.64 0.60 0.60 0.45 0.27 0.18 0.22 0.21 0.30 0.32 0.62 1.00 1.07 0.92 0.74 0.62
0.23 0.30 0.41 0.52 0.78 0.87 0.68 0.62 0.67 0.66 0.68 0.65 0.62 0.54 0.45 0.47 0.53 0.53 0.50 0.49 0.48 0.49 0.48 0.44 0.45 0.55 0.62 0.60 0.65 0.56 0.31 0.18 0.14 0.19 0.29 0.28 0.30 0.63 1.05 1.14 1.05 0.87 0.72
0.33 0.41 0.53 0.66 0.82 0.89 0.74 0.62 0.70 0.71 0.70 0.66 0.57 0.48 0.44 0.45 0.45 0.43 0.37 0.38 0.44 0.49 0.49 0.48 0.48 0.52 0.56 0.51 0.54 0.44 0.25 0.16 0.14 0.20 0.30 0.28 0.32 0.60 1.02 1.17 1.10 1.00 0.89
0.37 0.50 0.57 0.73 0.83 0.80 0.72 0.68 0.73 0.71 0.69 0.62 0.49 0.47 0.51 0.52 0.51 0.46 0.39 0.36 0.42 0.47 0.51 0.54 0.56 0.55 0.51 0.47 0.55 0.43 0.26 0.20 0.20 0.15 0.20 0.23 0.36 0.61 0.89 1.07 1.15 1.08 1.01
0.38 0.54 0.67 0.79 0.94 0.85 0.75 0.70 0.73 0.73 0.72 0.69 0.59 0.54 0.59 0.62 0.59 0.55 0.50 0.47 0.45 0.44 0.48 0.51 0.57 0.53 0.53 0.65 0.82 0.62 0.42 0.34 0.24 0.18 0.14 0.18 0.33 0.53 0.75 0.90 1.10 1.22 1.20
0.41 0.51 0.68 0.77 0.94 0.97 0.86 0.79 0.69 0.64 0.65 0.67 0.69 0.66 0.68 0.62 0.54 0.50 0.45 0.42 0.44 0.44 0.46 0.47 0.50 0.53 0.54 0.59 0.62 0.59 0.47 0.38 0.28 0.23 0.20 0.18 0.23 0.36 0.51 0.69 0.90 1.18 1.29
0.39 0.46 0.61 0.69 0.79 0.90 0.94 0.88 0.79 0.69 0.62 0.61 0.66 0.70 0.69 0.62 0.54 0.48 0.44 0.43 0.41 0.40 0.41 0.43 0.41 0.44 0.49 0.53 0.50 0.47 0.46 0.39 0.31 0.29 0.27 0.27 0.24 0.27 0.37 0.56 0.72 0.97 1.26
0.38 0.45 0.55 0.64 0.69 0.79 0.79 0.81 0.81 0.78 0.74 0.71 0.69 0.69 0.75 0.67 0.56 0.51 0.45 0.41 0.40 0.39 0.38 0.39 0.40 0.42 0.45 0.47 0.45 0.43 0.41 0.37 0.33 0.33 0.32 0.33 0.32 0.32 0.35 0.45 0.60 0.78 1.09
0.38 0.47 0.54 0.60 0.64 0.69 0.70 0.72 0.74 0.73 0.75 0.73 0.70 0.68 0.74 0.81 0.66 0.58 0.52 0.46 0.41 0.40 0.44 0.51 0.52 0.52 0.54 0.56 0.53 0.53 0.50 0.44 0.39 0.41 0.43 0.42 0.40 0.38 0.40 0.49 0.57 0.67 0.88
0.39 0.45 0.54 0.59 0.64 0.67 0.73 0.76 0.79 0.76 0.77 0.70 0.72 0.74 0.71 0.80 0.82 0.75 0.66 0.57 0.48 0.47 0.51 0.55 0.61 0.64 0.59 0.60 0.60 0.61 0.62 0.58 0.48 0.47 0.50 0.49 0.49 0.43 0.40 0.44 0.53 0.63 0.80
0.39 0.43 0.54 0.61 0.63 0.70 0.82 0.89 0.86 0.88 0.89 0.81 0.79 0.83 0.76 0.76 0.78 0.79 0.79 0.74 0.65 0.60 0.58 0.59 0.56 0.58 0.61 0.66 0.71 0.72 0.74 0.75 0.67 0.57 0.50 0.47 0.50 0.49 0.44 0.41 0.44 0.51 0.68
0.46 0.46 0.51 0.65 0.76 0.84 0.96 1.03 1.03 0.94 0.93 0.92 0.86 0.86 0.80 0.78 0.75 0.73 0.75 0.76 0.76 0.74 0.69 0.65 0.63 0.60 0.58 0.63 0.69 0.69 0.71 0.72 0.72 0.66 0.58 0.55 0.54 0.49 0.43 0.41 0.44 0.44 0.48
0.50 0.51 0.51 0.59 0.77 0.90 0.98 1.01 1.01 0.87 0.87 0.91 0.88 0.86 0.88 0.77 0.74 0.73 0.69 0.69 0.70 0.71 0.72 0.72 0.68 0.63 0.57 0.58 0.63 0.59 0.56 0.57 0.58 0.56 0.53 0.52 0.55 0.57 0.56 0.52 0.49 0.47 0.47
0.47 0.53 0.53 0.53 0.64 0.77 0.82 0.93 1.05 1.00 0.94 1.00 0.97 0.91 0.98 0.85 0.71 0.70 0.70 0.68 0.69 0.69 0.68 0.68 0.70 0.67 0.61 0.58 0.64 0.66 0.60 0.56 0.51 0.46 0.44 0.45 0.50 0.57 0.60 0.61 0.61 0.56 0.52
0.48 0.49 0.51 0.52 0.58 0.71 0.85 0.99 1.13 1.30 1.20 1.11 1.05 0.96 1.03 1.03 0.80 0.68 0.67 0.70 0.70 0.71 0.69 0.63 0.63 0.68 0.67 0.62 0.63 0.80 0.85 0.65 0.50 0.42 0.42 0.42 0.43 0.44 0.46 0.49 0.54 0.57 0.58
0.50 0.49 0.48 0.51 0.57 0.66 0.84 0.96 0.98 1.07 1.09 0.92 0.86 0.91 0.99 1.13 1.00 0.73 0.64 0.65 0.65 0.68 0.69 0.69 0.66 0.67 0.69 0.68 0.66 0.66 0.69 0.68 0.74 0.57 0.36 0.33 0.35 0.38 0.39 0.40 0.42 0.44 0.48
0.53 0.51 0.49 0.53 0.57 0.62 0.78 0.91 0.97 0.98 1.00 1.00 0.91 0.87 0.94 1.04 1.09 0.96 0.74 0.68 0.67 0.66 0.64 0.66 0.69 0.71 0.70 0.68 0.70 0.68 0.65 0.60 0.65 0.82 0.56 0.34 0.32 0.33 0.36 0.40 0.43 0.46 0.47
0.57 0.56 0.53 0.53 0.57 0.59 0.67 0.82 0.92 0.95 1.01 1.08 1.03 0.89 0.86 0.97 1.05 1.06 0.94 0.77 0.72 0.67 0.63 0.64 0.66 0.68 0.70 0.71 0.72 0.72 0.75 0.78 0.71 0.78 0.73 0.46 0.38 0.33 0.35 0.38 0.41 0.46 0.52